Location: ČR
(50.0000°N, 15.0000°E)
Time: 19:11:48
(UTC+00:00)

Vanguard 3 - Visible Passes

Search period start: 28 November 2022 00:00
Search period end: 08 December 2022 00:00
Orbit: 509 x 3255 km, 33.3° (Epoch: 27 November)

Date Brightness Start Highest point End Pass type
(mag) Time Alt. Az. Time Alt. Az. Time Alt. Az.
28 Nov 10.4 16:57:02 10° WSW 17:08:13 39° S 17:24:29 10° SE visible
28 Nov 10.8 19:09:22 10° WSW 19:21:50 30° SSW 19:29:54 23° S visible
28 Nov 11.3 21:27:27 10° WSW 21:34:25 14° SW 21:34:25 14° SW visible
29 Nov 10.3 15:42:48 10° SW 15:52:18 37° S 16:06:58 10° ESE visible
29 Nov 10.6 17:53:53 10° WSW 18:05:28 35° SSW 18:19:46 13° SE visible
29 Nov 11.1 20:08:06 10° WSW 20:18:50 21° SW 20:24:18 18° SSW visible
30 Nov 10.4 16:39:09 10° WSW 16:49:21 37° S 17:04:33 10° SE visible
30 Nov 10.8 18:51:27 10° WSW 19:02:40 27° SSW 19:14:24 14° SSE visible
30 Nov 11.4 21:11:50 10° SW 21:15:30 11° SW 21:18:58 10° SSW visible
01 Dec 10.3 15:25:00 10° SW 15:33:38 35° S 15:47:06 10° ESE visible
01 Dec 10.6 17:36:01 10° WSW 17:46:31 31° SSW 18:01:12 10° SE visible
01 Dec 11.2 19:50:36 10° WSW 19:59:39 18° SW 20:09:21 11° S visible
02 Dec 10.4 16:21:22 10° WSW 16:30:36 34° S 16:44:31 10° SE visible
02 Dec 11.0 18:33:44 10° WSW 18:43:38 23° SSW 18:56:22 10° SSE visible
03 Dec 10.7 17:18:19 10° WSW 17:27:40 28° SSW 17:40:52 10° SSE visible
03 Dec 11.3 19:33:42 10° WSW 19:40:36 14° SW 19:48:30 10° S visible
04 Dec 10.5 16:03:43 10° WSW 16:11:57 30° S 16:24:23 10° SE visible
04 Dec 11.1 18:16:20 10° WSW 18:24:44 20° SSW 18:35:30 10° S visible
05 Dec 10.8 17:00:48 10° WSW 17:08:58 24° SSW 17:20:23 10° SSE visible
05 Dec 11.5 19:18:23 10° SW 19:21:40 11° SW 19:25:13 10° SSW visible
06 Dec 10.6 15:46:13 10° WSW 15:53:27 26° S 16:04:13 10° SE visible
06 Dec 11.2 17:59:21 10° WSW 18:05:58 16° SSW 18:14:12 10° S visible
07 Dec 10.9 16:43:32 10° WSW 16:50:24 20° SSW 16:59:42 10° SSE visible
